This is the latest recevied weather packets stored in our database for station/object KC5EZZ-2. If no packets are shown the sender has not sent any weather packets the latest 10 day(s).
| Time | Temp. | Humidity | Pressure | Rain* | Wind** | Luminosity | Snow |
|---|---|---|---|---|---|---|---|
| 1787654649 | 26.67° C | - | - | 0 mm | 4.92 m/s, 167° | - | - |
| 1787654346 | 26.11° C | - | - | 0 mm | 4.02 m/s, 162° | - | - |
| 1787654308 | 23.89° C | - | - | 0 mm | 0 m/s | - | - |
| 1787654047 | 26.67° C | - | - | 0 mm | 4.47 m/s, 163° | - | - |
| 1787653747 | 26.67° C | - | - | 0 mm | 4.02 m/s, 172° | - | - |
| 1787653445 | 26.67° C | - | - | 0 mm | 4.92 m/s, 180° | - | - |
| 1787653401 | 23.89° C | - | - | 0 mm | 0 m/s | - | - |
| 1787653145 | 26.67° C | - | - | 0 mm | 3.58 m/s, 179° | - | - |
| 1787652845 | 26.67° C | - | - | 0 mm | 4.47 m/s, 173° | - | - |
| 1787652543 | 26.11° C | - | - | 0 mm | 4.92 m/s, 173° | - | - |
| 1787652243 | 26.67° C | - | - | 0 mm | 3.58 m/s, 159° | - | - |
| 1787652193 | 24.44° C | - | - | 0 mm | 0 m/s | - | - |
| 1787651944 | 26.67° C | - | - | 0 mm | 4.47 m/s, 153° | - | - |
| 1787651641 | 26.67° C | - | - | 0 mm | 4.47 m/s, 158° | - | - |
| 1787651341 | 26.67° C | - | - | 0 mm | 5.36 m/s, 194° | - | - |
| 1787651042 | 26.67° C | - | - | 0 mm | 4.92 m/s, 156° | - | - |
| 1787650739 | 27.22° C | - | - | 0 mm | 4.47 m/s, 166° | - | - |
| 1787650678 | 24.44° C | - | - | 0 mm | 0 m/s | - | - |
| 1787650440 | 27.22° C | - | - | 0 mm | 6.26 m/s, 177° | - | - |
| 1787650140 | 26.67° C | - | - | 0 mm | 4.47 m/s, 184° | - | - |
| 1787649838 | 26.67° C | - | - | 0 mm | 5.81 m/s, 173° | - | - |
| 1787649538 | 27.22° C | - | - | 0 mm | 4.02 m/s, 143° | - | - |
| 1787649238 | 27.22° C | - | - | 0 mm | 4.02 m/s, 146° | - | - |
| 1787648936 | 27.22° C | - | - | 0 mm | 6.26 m/s, 176° | - | - |
| 1787648637 | 27.22° C | - | - | 0 mm | 4.47 m/s, 174° | - | - |
* Rain latest hour (hover to see other rain measurements)
** Current wind speed in m/s (hover to see current wind gust speed)